Regional Weather Roundup
Issued by NWS

Home | Current Version | Previous Version | Text Only | Print | Product List | Glossary On
Versions: 1 2 3 4 5 6 7 8 9 10 11 12 13 14 15 16 17 18 19 20 21 22 23 24 25 26 27 28 29 30 31 32 33 34 35 36 37 38 39 40 41 42 43 44 45 46 47 48 49 50
000
ASUS44 KFWD 140615
RWRTX
NORTH TEXAS HOURLY WEATHER ROUNDUP
NATIONAL WEATHER SERVICE FORT WORTH TX
1200 AM CST THU DEC 14 2017

NOTE: "FAIR" INDICATES FEW OR NO CLOUDS BELOW 12,000 FEET WITH NO
SIGNIFICANT WEATHER AND/OR OBSTRUCTIONS TO VISIBILITY.

TXZ118-119-140700-
DALLAS/FORT WORTH METROPLEX

CITY           SKY/WX    TMP DP  RH WIND       PRES   REMARKS
DFW AIRPORT    CLEAR     45  30  55 S5        29.88S
6HR MIN TEMP:  45; 6HR MAX TEMP:  66;

DALLAS LOVE    CLEAR     51  33  50 SW3       29.90S
6HR MIN TEMP:  50; 6HR MAX TEMP:  67;

FTW MEACHAM    CLEAR     50  23  34 NW7       29.90S
6HR MIN TEMP:  46; 6HR MAX TEMP:  67;

DAL-EXECUTIVE  CLEAR     49  33  54 SW5       29.89F
6HR MIN TEMP:  49; 6HR MAX TEMP:  66;

FTW-ALLIANCE   CLEAR     38  21  50 CALM      29.90S
6HR MIN TEMP:  36; 6HR MAX TEMP:  59;

FTW-NAS-JRB    CLEAR     45  25  45 NW6       29.91S
6HR MIN TEMP:  44; 6HR MAX TEMP:  63;

FTW-SPINKS     CLEAR     45  31  60 CALM      29.92S
6HR MIN TEMP:  44; 6HR MAX TEMP:  64;

ARLINGTON      CLEAR     37  30  75 CALM      29.90F
6HR MIN TEMP:  36; 6HR MAX TEMP:  66;

GRAND PRAIRIE  CLEAR     47  32  56 S3        29.92S
6HR MIN TEMP:  47; 6HR MAX TEMP:  67;

ADDISON        CLEAR     49  32  50 CALM      29.91F
6HR MIN TEMP:  49; 6HR MAX TEMP:  65;

MESQUITE       CLEAR     41  29  62 SE6       29.91S WCI  37
6HR MIN TEMP:  38; 6HR MAX TEMP:  60;

LANCASTER      CLEAR     39  27  60 CALM      29.92S
6HR MIN TEMP:  39; 6HR MAX TEMP:  62;

$$

TXZ091>094-102>105-117-120-121-131>134-140700-
NORTH CENTRAL TEXAS

CITY           SKY/WX    TMP DP  RH WIND       PRES   REMARKS
SHRMAN/DENISON CLEAR     44  24  45 CALM      29.93R
6HR MIN TEMP:  40; 6HR MAX TEMP:  58;

GAINESVILLE    PTCLDY    40  21  46 N7        29.94S WCI  36
6HR MIN TEMP:  40; 6HR MAX TEMP:  55;

BOWIE          CLEAR     40  23  50 CALM      29.93S
6HR MIN TEMP:  40; 6HR MAX TEMP:  56;

BRIDGEPORT     CLEAR     36  23  60 SW3       29.93F
6HR MIN TEMP:  35; 6HR MAX TEMP:  55;

DECATUR        CLEAR     51  21  30 N8        29.89F
6HR MIN TEMP:  50; 6HR MAX TEMP:  64;

DENTON         CLEAR     38  23  55 N7        29.90F WCI  33
6HR MIN TEMP:  36; 6HR MAX TEMP:  65;

MCKINNEY       CLEAR     37  26  64 CALM      29.91R
6HR MIN TEMP:  37; 6HR MAX TEMP:  65;

BONHAM         CLEAR     41  27  57 W7        29.92R WCI  36
6HR MIN TEMP:  39; 6HR MAX TEMP:  61;

GREENVILLE     CLEAR     41  32  70 CALM      29.91S
ROCKWALL       CLEAR     45  32  60 S6        29.90F
6HR MIN TEMP:  45; 6HR MAX TEMP:  61;

TERRELL        CLEAR     38  28  67 S3        29.92S
6HR MIN TEMP:  37; 6HR MAX TEMP:  62;

WAXAHACHIE     CLEAR     46  34  63 W5        29.92S
6HR MIN TEMP:  46; 6HR MAX TEMP:  60;

CLEBURNE       CLOUDY    41  32  70 S3        29.92F
GRANBURY       PTCLDY    42  26  54 CALM      29.92S
6HR MIN TEMP:  40; 6HR MAX TEMP:  65;

$$

TXZ083>090-098>101-113>116-127>130-139>142-154-155-140700-
WESTERN NORTH TEXAS

CITY           SKY/WX    TMP DP  RH WIND       PRES   REMARKS
WICHITA FALLS  CLEAR     43  24  47 NW8       29.93S WCI  38
6HR MIN TEMP:  39; 6HR MAX TEMP:  60;

WF-KICKAPOO    CLEAR     43  25  48 CALM      29.96R
6HR MIN TEMP:  43; 6HR MAX TEMP:  61;

VERNON         CLEAR     43  18  35 N8        29.96S WCI  39
6HR MIN TEMP:  35; 6HR MAX TEMP:  73;

ABILENE        CLEAR     41  27  57 SE3       29.94R
6HR MIN TEMP:  40; 6HR MAX TEMP:  63;

ABILENE-DYESS  CLEAR     42  23  46 CALM      29.93S
6HR MIN TEMP:  40; 6HR MAX TEMP:  61;

GRAHAM           N/A     41  21  44 CALM      29.91S
6HR MIN TEMP:  38; 6HR MAX TEMP:  62;

BRECKENRIDGE   CLEAR     40  19  42 CALM      29.93S
6HR MIN TEMP:  40; 6HR MAX TEMP:  65;

CISCO          PTCLDY    45  27  49 W8        29.93S
EASTLAND       CLEAR     32  22  66 CALM      29.93S
6HR MIN TEMP:  31; 6HR MAX TEMP:  54;

RANGER         CLEAR     49  26  40 W9        29.93R
6HR MIN TEMP:  37; 6HR MAX TEMP:  72;

MINERAL WELLS  CLEAR     43  20  39 CALM      29.90S
6HR MIN TEMP:  42; 6HR MAX TEMP:  65;

STEPHENVILLE   PTCLDY    49  27  41 NW3       29.94S
6HR MIN TEMP:  47; 6HR MAX TEMP:  64;

COMANCHE       PTCLDY    55  28  36 W12       29.92S
6HR MIN TEMP:  53; 6HR MAX TEMP:  63;

BROWNWOOD      PTCLDY    46  25  42 E3        29.93F
COLEMAN        PTCLDY    53  29  39 W12       29.92F
6HR MIN TEMP:  52; 6HR MAX TEMP:  63;

$$

TXZ143>147-156>162-174-175-140700-
CENTRAL TEXAS

CITY           SKY/WX    TMP DP  RH WIND       PRES   REMARKS
WACO           CLOUDY    47  36  65 S7        29.91F
6HR MIN TEMP:  44; 6HR MAX TEMP:  55;

WACO-MCGREGOR  CLOUDY    45  35  68 S8        29.92S
6HR MIN TEMP:  43; 6HR MAX TEMP:  55;

HILLSBORO      PTCLDY    43  33  68 CALM      29.91S
6HR MIN TEMP:  42; 6HR MAX TEMP:  59;

CORSICANA      CLOUDY    45  34  65 SW9       29.92S
6HR MIN TEMP:  45; 6HR MAX TEMP:  56;

MEXIA          CLOUDY    47  33  58 SW9       29.91F
6HR MIN TEMP:  43; 6HR MAX TEMP:  53;

HEARNE         CLOUDY    44  36  74 E3        29.97S
6HR MIN TEMP:  41; 6HR MAX TEMP:  53;

CAMERON        CLOUDY    51  34  53 SW12      29.94S
6HR MIN TEMP:  47; 6HR MAX TEMP:  55;

TEMPLE         CLOUDY    46  36  68 S9        29.93F
6HR MIN TEMP:  42; 6HR MAX TEMP:  55;

KILLEEN        CLOUDY    51  32  49 SW8       29.91F
6HR MIN TEMP:  46; 6HR MAX TEMP:  54;

KILLEEN-SKYLRK CLOUDY    46  35  65 W3        29.93F
6HR MIN TEMP:  45; 6HR MAX TEMP:  55;

FORT HOOD      CLOUDY    48  33  57 SW5       29.89S
6HR MIN TEMP:  47; 6HR MAX TEMP:  56;

GATESVILLE     CLOUDY    46  32  57 CALM      29.94S
HAMILTON       CLOUDY    49  31  49 W5        29.92S
6HR MIN TEMP:  45; 6HR MAX TEMP:  58;

LAMPASAS       CLOUDY    48  32  52 W6        29.92F
6HR MIN TEMP:  48; 6HR MAX TEMP:  56;

$$

TXZ095>097-106>112-122>126-135>138-148>153-164>167-140700-
EAST TEXAS

CITY           SKY/WX    TMP DP  RH WIND       PRES   REMARKS
PARIS          CLEAR     45  30  55 W5        29.91F
6HR MIN TEMP:  45; 6HR MAX TEMP:  59;

SULPHUR SPRNGS CLEAR     46  32  57 CALM      29.93F
6HR MIN TEMP:  46; 6HR MAX TEMP:  60;

MOUNT PLEASANT CLEAR     42  32  66 SE3       29.93F
6HR MIN TEMP:  42; 6HR MAX TEMP:  61;

GILMER         CLEAR     39  32  75 CALM      29.92F
6HR MIN TEMP:  39; 6HR MAX TEMP:  59;

MINEOLA        CLEAR     39  32  75 CALM      29.92S
TYLER          CLEAR     41  33  73 S8        29.91S WCI  36
6HR MIN TEMP:  41; 6HR MAX TEMP:  56;

LONGVIEW       CLEAR     40  34  79 CALM      29.92S
6HR MIN TEMP:  40; 6HR MAX TEMP:  58;

MARSHALL       CLEAR     40  32  74 CALM      29.94S
6HR MIN TEMP:  39; 6HR MAX TEMP:  55;

ATHENS         CLEAR     37  30  75 CALM      29.91F
PALESTINE      CLOUDY    42  34  71 CALM      29.94F
JACKSONVILLE   CLOUDY    45  35  66 S8        29.93F
HENDERSON      CLOUDY    40  33  77 CALM      29.94S
6HR MIN TEMP:  39; 6HR MAX TEMP:  55;

CENTER         CLOUDY    41  32  70 E7        29.94F WCI  36
6HR MIN TEMP:  40; 6HR MAX TEMP:  52;

NACOGDOCHES    CLOUDY    38  34  85 CALM      29.95S
6HR MIN TEMP:  36; 6HR MAX TEMP:



USA.gov is the U.S. government's official web portal to all federal, state and local government web resources and services.